Vertical_Velocity
-4 -0 -1 -3 -7 -4 -5 -3 -3 -0 -0 -2 1 2 2 -1 3 6 -1 -2 0 -1
-2 -5 -3 -1 -4 -1 -1 -3 0 -3 -1 -1 -0 -0 3 2 6 2 -1 -1 0 1
-2 -1 -2 -6 -1 -1 -1 -1 -2 -3 -3 -3 -1 2 2 -2 10 5 2 1 1 3
0 -3 -2 -0 1 -2 -5 -5 -5 -4 -2 -1 -0 -2 4 5 3 -4 -0 1 3 -1
-2 -1 -1 0 -2 -3 -3 -4 -3 -3 -3 -1 1 4 3 -8 5 -2 -0 3 -3 -1
-1 -0 -1 -2 -2 -1 -3 -4 -3 0 -3 -4 0 -3 -1 0 -2 -3 -2 -0 -0 -4
-2 -2 -3 -2 -4 -3 -2 -1 0 -1 -0 1 -2 -1 -1 0 -2 3 1 -2 -1 -1
-2 -2 -0 -1 -1 -1 -2 -2 0 1 -2 -3 -2 -0 -1 2 -2 -1 -2 -1 -1 1
-3 -1 0 -1 -4 -3 -1 -1 1 -1 1 -3 1 -3 -1 -1 -2 -1 -1 -1 -1 1
-0 -2 -3 -3 -2 -1 -1 -1 -0 -2 1 -0 7 -0 -1 -2 0 -2 -1 -1 -1 -1
-1 -2 -2 -1 -0 1 3 -5 0 5 -4 0 1 1 -2 -1 -1 -1 0 0 -1 0
-1 -0 1 1 -1 -1 -3 -4 2 -0 -0 2 6 -2 -2 -1 -1 -1 -1 -1 1 -2
1 1 3 1 2 3 -5 -2 -1 -3 0 -1 4 -5 -1 -1 -1 -2 -2 1 -1 2
-1 -0 -2 -2 -2 1 0 -1 0 -2 2 2 -1 2 -0 -2 -0 -2 -3 -2 -1 -1
Height
1560 1561 1560 1559 1558 1557 1555 1552 1549 1546 1544 1541 1539 1537 1534 1531 1528 1525 1524 1522 1521 1519
1557 1557 1556 1555 1553 1551 1549 1547 1544 1541 1539 1536 1533 1530 1528 1525 1522 1520 1518 1517 1516 1514
1554 1553 1552 1551 1549 1547 1544 1542 1539 1536 1532 1529 1526 1524 1521 1519 1517 1514 1514 1513 1511 1509
1549 1549 1548 1547 1544 1542 1539 1536 1532 1528 1525 1522 1520 1518 1516 1513 1511 1510 1509 1508 1506 1503
1545 1545 1544 1542 1540 1537 1534 1530 1526 1523 1520 1517 1515 1513 1509 1508 1507 1506 1505 1503 1501 1499
1542 1541 1539 1537 1535 1532 1528 1524 1521 1518 1515 1511 1509 1507 1506 1504 1502 1502 1501 1499 1497 1493
1537 1535 1534 1532 1529 1526 1523 1520 1517 1514 1510 1506 1505 1504 1503 1501 1500 1499 1497 1494 1490 1486
1531 1529 1528 1526 1524 1521 1517 1515 1513 1508 1504 1502 1502 1501 1499 1499 1497 1495 1492 1488 1484 1481
1526 1524 1523 1521 1518 1516 1513 1511 1508 1505 1502 1500 1499 1496 1495 1494 1493 1490 1486 1483 1479 1475
1521 1519 1518 1515 1513 1510 1507 1506 1503 1501 1499 1498 1495 1492 1491 1490 1487 1484 1481 1478 1474 1470
1516 1514 1512 1509 1507 1504 1501 1500 1499 1497 1495 1494 1491 1488 1487 1485 1482 1479 1477 1473 1470 1466
1511 1508 1506 1504 1502 1499 1495 1496 1494 1492 1491 1490 1487 1484 1482 1480 1478 1475 1472 1469 1466 1461
1507 1505 1502 1499 1495 1492 1490 1490 1488 1488 1486 1484 1483 1479 1478 1476 1473 1470 1468 1465 1462 1458
1502 1499 1496 1493 1493 1488 1486 1484 1482 1481 1481 1479 1478 1475 1473 1471 1469 1466 1464 1461 1458 1455